Location: Gaast
(52.9002°N, 5.8891°E)
Time: 11:59:17
(UTC+00:00)

Cosmos 1656 Rocket - Pass Details

Date: 18 November 2025
Orbit: 791 x 846 km, 71.1° (Epoch: 10 December)

Event Time Altitude Azimuth Distance (km) Brightness Sun altitude
Rises 18:00:52 0° 185° (S) 3,334 6.9 -21.2°
Reaches altitude 10° 18:03:22 10° 179° (S) 2,415 6.1 -21.6°
Enters shadow 18:07:58 41° 127° (SE) 1,189 4.1 -22.3°
